This is the latest recevied weather packets stored in our database for station/object IR9AK-10. If no packets are shown the sender has not sent any weather packets the latest 10 day(s).
| Time | Temp. | Humidity | Pressure | Rain* | Wind** | Luminosity | Snow |
|---|---|---|---|---|---|---|---|
| 1777835435 | 17.22° C | 57% | 1065.5 hPa | - | - | - | - |
| 1777834835 | 17.22° C | 57% | 1065.6 hPa | - | - | - | - |
| 1777834236 | 17.22° C | 56% | 1065.6 hPa | - | - | - | - |
| 1777833637 | 17.78° C | 57% | 1065.5 hPa | - | - | - | - |
| 1777833037 | 17.78° C | 56% | 1065.3 hPa | - | - | - | - |
| 1777832438 | 17.78° C | 57% | 1065.2 hPa | - | - | - | - |
| 1777831838 | 18.33° C | 56% | 1065.1 hPa | - | - | - | - |
| 1777831239 | 18.33° C | 57% | 1065 hPa | - | - | - | - |
| 1777830640 | 18.33° C | 56% | 1064.9 hPa | - | - | - | - |
| 1777830041 | 18.33° C | 56% | 1064.9 hPa | - | - | - | - |
| 1777829441 | 18.33° C | 56% | 1064.9 hPa | - | - | - | - |
| 1777828843 | 18.89° C | 54% | 1064.7 hPa | - | - | - | - |
| 1777828243 | 18.89° C | 53% | 1064.7 hPa | - | - | - | - |
| 1777827644 | 19.44° C | 51% | 1064.7 hPa | - | - | - | - |
| 1777827046 | 19.44° C | 52% | 1064.7 hPa | - | - | - | - |
| 1777826446 | 18.89° C | 50% | 1064.8 hPa | - | - | - | - |
| 1777825846 | 18.89° C | 52% | 1064.7 hPa | - | - | - | - |
| 1777825247 | 18.89° C | 54% | 1064.7 hPa | - | - | - | - |
| 1777824647 | 19.44° C | 54% | 1064.6 hPa | - | - | - | - |
| 1777824049 | 19.44° C | 54% | 1064.7 hPa | - | - | - | - |
| 1777823449 | 19.44° C | 54% | 1064.9 hPa | - | - | - | - |
| 1777822851 | 19.44° C | 55% | 1065 hPa | - | - | - | - |
| 1777822252 | 19.44° C | 55% | 1065 hPa | - | - | - | - |
| 1777821652 | 20° C | 55% | 1064.9 hPa | - | - | - | - |
| 1777821053 | 20° C | 55% | 1065.1 hPa | - | - | - | - |
* Rain since midnight (hover to see other rain measurements)
** Current wind speed in m/s (hover to see current wind gust speed)